AAL829 TNCC-KBNA

Flight info

Callsign AAL829
Flight time N/A
Altitude 34000
Route AGLIS DCT APLED DCT GHANN DCT ZQA/N0462F360 BR65V ZFP BR69V BENZI DCT CRG DCT JAGIR SWFFT3
Aircraft B738/M-SDE2E3FGHIRWXY/LB1

Departure

Time 2026-04-14 18:29
Airport Hato International Airport (TNCC)

Arrival

Time N/A
Airport Nashville International Airport (KBNA)
Time Latitude Longitude Altitude Speed Heading
2026-04-14 17:58 12.18554 -68.95617 42 ft 0 kts 200°
2026-04-14 18:17 12.18558 -68.95616 42 ft 4 kts 195°
2026-04-14 18:18 12.18581 -68.95610 41 ft 4 kts 200°
2026-04-14 18:18 12.18605 -68.95597 41 ft 4 kts 221°
2026-04-14 18:18 12.18621 -68.95578 40 ft 2 kts 244°
2026-04-14 18:18 12.18621 -68.95576 39 ft 1 kts 245°
2026-04-14 18:21 12.18621 -68.95582 40 ft 2 kts 266°
2026-04-14 18:21 12.18624 -68.95599 41 ft 3 kts 287°
2026-04-14 18:21 12.18637 -68.95649 42 ft 11 kts 283°
2026-04-14 18:21 12.18654 -68.95727 42 ft 12 kts 278°
2026-04-14 18:22 12.18670 -68.95808 42 ft 11 kts 280°
2026-04-14 18:22 12.18684 -68.95885 42 ft 11 kts 283°
2026-04-14 18:22 12.18701 -68.95968 42 ft 13 kts 281°
2026-04-14 18:22 12.18720 -68.96060 41 ft 13 kts 282°
2026-04-14 18:23 12.18738 -68.96148 41 ft 13 kts 281°
2026-04-14 18:23 12.18755 -68.96236 40 ft 12 kts 281°
2026-04-14 18:23 12.18774 -68.96321 42 ft 13 kts 283°
2026-04-14 18:23 12.18795 -68.96415 41 ft 13 kts 284°
2026-04-14 18:24 12.18816 -68.96505 41 ft 13 kts 284°
2026-04-14 18:24 12.18835 -68.96593 41 ft 13 kts 281°
2026-04-14 18:24 12.18853 -68.96681 40 ft 13 kts 282°
2026-04-14 18:24 12.18872 -68.96768 39 ft 12 kts 283°
2026-04-14 18:25 12.18892 -68.96853 40 ft 12 kts 282°
2026-04-14 18:25 12.18909 -68.96936 40 ft 12 kts 281°
2026-04-14 18:25 12.18926 -68.97017 39 ft 12 kts 282°
2026-04-14 18:25 12.18946 -68.97107 38 ft 15 kts 282°
2026-04-14 18:26 12.18973 -68.97230 37 ft 18 kts 282°
2026-04-14 18:26 12.19000 -68.97357 37 ft 18 kts 282°
2026-04-14 18:26 12.19025 -68.97478 39 ft 17 kts 282°
2026-04-14 18:26 12.19050 -68.97594 39 ft 17 kts 284°
2026-04-14 18:27 12.19124 -68.97646 39 ft 13 kts
2026-04-14 18:27 12.19205 -68.97613 38 ft 13 kts 57°
2026-04-14 18:27 12.19221 -68.97525 38 ft 13 kts 94°
2026-04-14 18:27 12.19212 -68.97458 37 ft 0 kts 105°
2026-04-14 18:28 12.19211 -68.97455 37 ft 7 kts 105°
2026-04-14 18:28 12.19148 -68.97176 39 ft 74 kts 101°
2026-04-14 18:28 12.18995 -68.96450 41 ft 132 kts 102°
2026-04-14 18:28 12.18767 -68.95367 118 ft 173 kts 101°
2026-04-14 18:29 12.18498 -68.94107 712 ft 188 kts 99°
2026-04-14 18:29 12.18234 -68.92811 1640 ft 186 kts 101°
2026-04-14 18:29 12.17938 -68.91414 1977 ft 215 kts 103°
2026-04-14 18:29 12.17608 -68.89852 2458 ft 230 kts 99°
2026-04-14 18:30 12.17721 -68.88185 2887 ft 249 kts 69°
2026-04-14 18:30 12.18781 -68.86732 3384 ft 263 kts 38°
2026-04-14 18:30 12.20405 -68.85893 4192 ft 264 kts 21°
2026-04-14 18:30 12.22184 -68.85345 4901 ft 271 kts
2026-04-14 18:31 12.24057 -68.85605 5566 ft 277 kts 336°
2026-04-14 18:31 12.25798 -68.86453 6324 ft 278 kts 334°
2026-04-14 18:31 12.27530 -68.87335 6990 ft 281 kts 333°
2026-04-14 18:31 12.29295 -68.88237 7660 ft 284 kts 333°
2026-04-14 18:32 12.31059 -68.89134 8317 ft 287 kts 332°
2026-04-14 18:32 12.32860 -68.90045 8992 ft 290 kts 332°
2026-04-14 18:32 12.34682 -68.90961 9648 ft 294 kts 332°
2026-04-14 18:32 12.36526 -68.91885 10235 ft 299 kts 332°
2026-04-14 18:33 12.38470 -68.92858 10399 ft 321 kts 332°
2026-04-14 18:33 12.40544 -68.93893 10551 ft 340 kts 332°
2026-04-14 18:33 12.42700 -68.94967 10699 ft 359 kts 332°
2026-04-14 18:34 12.49759 -68.98469 11872 ft 381 kts 332°
2026-04-14 18:34 12.52126 -68.99641 12449 ft 382 kts 332°
2026-04-14 18:34 12.54536 -69.00834 12988 ft 385 kts 332°
2026-04-14 18:35 12.56960 -69.02036 13531 ft 387 kts 332°
2026-04-14 18:35 12.59403 -69.03247 14006 ft 390 kts 332°
2026-04-14 18:35 12.61821 -69.04447 14477 ft 391 kts 332°
2026-04-14 18:35 12.64283 -69.05669 14953 ft 393 kts 331°
2026-04-14 18:36 12.66751 -69.06894 15415 ft 395 kts 331°
2026-04-14 18:36 12.69239 -69.08129 15872 ft 396 kts 330°
2026-04-14 18:36 12.71726 -69.09365 16318 ft 398 kts 330°
2026-04-14 18:36 12.74231 -69.10609 16752 ft 400 kts 330°
2026-04-14 18:37 12.76719 -69.11846 17173 ft 402 kts 330°
2026-04-14 18:37 12.79248 -69.13102 17604 ft 404 kts 329°
2026-04-14 18:37 12.81791 -69.14366 18023 ft 406 kts 329°
2026-04-14 18:37 12.84342 -69.15635 18389 ft 408 kts 329°
2026-04-14 18:38 12.86874 -69.16894 18723 ft 409 kts 329°
2026-04-14 18:38 12.89449 -69.18174 19062 ft 411 kts 330°
2026-04-14 18:38 12.92031 -69.19458 19394 ft 412 kts 330°
2026-04-14 18:38 12.94627 -69.20749 19724 ft 414 kts 330°
2026-04-14 18:39 12.97224 -69.22042 20046 ft 415 kts 330°
2026-04-14 18:39 12.99799 -69.23324 20348 ft 417 kts 330°
2026-04-14 18:39 13.02424 -69.24631 20643 ft 419 kts 331°
2026-04-14 18:39 13.05059 -69.25943 20939 ft 420 kts 331°
2026-04-14 18:40 13.07691 -69.27254 21235 ft 421 kts 331°
2026-04-14 18:40 13.10313 -69.28561 21514 ft 423 kts 331°
2026-04-14 18:40 13.12977 -69.29888 21787 ft 425 kts 331°
2026-04-14 18:40 13.15638 -69.31215 22048 ft 426 kts 332°
2026-04-14 18:41 13.18310 -69.32547 22302 ft 428 kts 332°
2026-04-14 18:41 13.20994 -69.33886 22550 ft 429 kts 332°
2026-04-14 18:41 13.23662 -69.35217 22800 ft 430 kts 332°
2026-04-14 18:41 13.26355 -69.36561 23040 ft 432 kts 332°
2026-04-14 18:42 13.29066 -69.37914 23274 ft 433 kts 332°
2026-04-14 18:42 13.31791 -69.39274 23483 ft 435 kts 332°
2026-04-14 18:42 13.34485 -69.40620 23675 ft 436 kts 332°
2026-04-14 18:42 13.37206 -69.41979 23887 ft 436 kts 332°
2026-04-14 18:43 13.39943 -69.43346 24063 ft 437 kts 332°
2026-04-14 18:43 13.42686 -69.44718 24245 ft 438 kts 332°
2026-04-14 18:43 13.45439 -69.46094 24434 ft 439 kts 332°
2026-04-14 18:43 13.48196 -69.47472 24626 ft 439 kts 332°
2026-04-14 18:44 13.50920 -69.48835 24809 ft 440 kts 332°
2026-04-14 18:44 13.53677 -69.50214 24976 ft 441 kts 332°
2026-04-14 18:44 13.56445 -69.51599 25147 ft 442 kts 332°
2026-04-14 18:44 13.59227 -69.52992 25315 ft 443 kts 332°
2026-04-14 18:45 13.62007 -69.54384 25490 ft 443 kts 332°
2026-04-14 18:45 13.64757 -69.55761 25694 ft 443 kts 332°
2026-04-14 18:45 13.67541 -69.57155 25890 ft 443 kts 332°
2026-04-14 18:45 13.70316 -69.58546 26043 ft 444 kts 332°
2026-04-14 18:46 13.73095 -69.59939 26186 ft 445 kts 332°
2026-04-14 18:46 13.75891 -69.61341 26350 ft 446 kts 332°
2026-04-14 18:46 13.78642 -69.62721 26508 ft 447 kts 332°
2026-04-14 18:46 13.81448 -69.64128 26662 ft 447 kts 331°
2026-04-14 18:47 13.84247 -69.65532 26805 ft 448 kts 331°
2026-04-14 18:47 13.87052 -69.66940 26946 ft 449 kts 331°
2026-04-14 18:47 13.89872 -69.68356 27113 ft 449 kts 331°
2026-04-14 18:47 13.92686 -69.69769 27242 ft 450 kts 331°
2026-04-14 18:48 13.95505 -69.71185 27381 ft 451 kts 331°
2026-04-14 18:48 13.98299 -69.72589 27509 ft 452 kts 331°
2026-04-14 18:48 14.01127 -69.74010 27660 ft 452 kts 331°
2026-04-14 18:48 14.03955 -69.75431 27877 ft 451 kts 331°
2026-04-14 18:49 14.06776 -69.76849 28128 ft 449 kts 331°
2026-04-14 18:49 14.09584 -69.78261 28341 ft 448 kts 331°
2026-04-14 18:49 14.12352 -69.79654 28532 ft 447 kts 331°
2026-04-14 18:49 14.15160 -69.81067 28731 ft 447 kts 331°
2026-04-14 18:50 14.17957 -69.82475 28967 ft 445 kts 330°
2026-04-14 18:50 14.20748 -69.83880 29195 ft 444 kts 330°
2026-04-14 18:50 14.23497 -69.85265 29407 ft 444 kts 330°
2026-04-14 18:50 14.26276 -69.86665 29624 ft 443 kts 330°
2026-04-14 18:51 14.29047 -69.88062 29863 ft 442 kts 330°
2026-04-14 18:51 14.31801 -69.89450 30083 ft 440 kts 330°
2026-04-14 18:51 14.34557 -69.90839 30261 ft 440 kts 330°
2026-04-14 18:51 14.37317 -69.92232 30421 ft 440 kts 330°
2026-04-14 18:52 14.40032 -69.93602 30588 ft 440 kts 330°
2026-04-14 18:52 14.42777 -69.94987 30785 ft 439 kts 330°
2026-04-14 18:52 14.45520 -69.96371 30992 ft 438 kts 330°
2026-04-14 18:52 14.48255 -69.97752 31176 ft 438 kts 329°
2026-04-14 18:53 14.51001 -69.99139 31343 ft 438 kts 329°
2026-04-14 18:53 14.53741 -70.00524 31545 ft 437 kts 329°
2026-04-14 18:53 14.56469 -70.01902 31758 ft 436 kts 329°
2026-04-14 18:53 14.59156 -70.03260 31953 ft 435 kts 329°
2026-04-14 18:54 14.61885 -70.04640 32143 ft 435 kts 329°
2026-04-14 18:54 14.64603 -70.06015 32354 ft 434 kts 329°
2026-04-14 18:54 14.67313 -70.07385 32557 ft 433 kts 329°
2026-04-14 18:54 14.70025 -70.08758 32747 ft 433 kts 329°
2026-04-14 18:55 14.72703 -70.10113 32942 ft 432 kts 328°
2026-04-14 18:55 14.75406 -70.11482 33137 ft 432 kts 328°
2026-04-14 18:55 14.78108 -70.12851 33326 ft 431 kts 328°
2026-04-14 18:55 14.80808 -70.14218 33507 ft 430 kts 328°
2026-04-14 18:56 14.83461 -70.15563 33645 ft 429 kts 328°
2026-04-14 18:56 14.86148 -70.16925 33760 ft 429 kts 328°
2026-04-14 18:56 14.88834 -70.18287 33876 ft 429 kts 328°
2026-04-14 18:56 14.91517 -70.19648 33928 ft 429 kts 328°
2026-04-14 18:57 14.96892 -70.22376 33933 ft 430 kts 328°
2026-04-14 18:57 15.02235 -70.25088 33931 ft 428 kts 328°
2026-04-14 18:58 15.07591 -70.27808 33935 ft 427 kts 328°
2026-04-14 18:58 15.12898 -70.30505 33933 ft 427 kts 328°
2026-04-14 18:59 15.18226 -70.33214 33936 ft 426 kts 328°
2026-04-14 18:59 15.23520 -70.35909 33936 ft 425 kts 328°
2026-04-14 19:00 15.28837 -70.38616 33937 ft 425 kts 328°
2026-04-14 19:00 15.33251 -70.40864 33932 ft 424 kts 327°
2026-04-14 19:01 15.38559 -70.43569 33940 ft 424 kts 327°
2026-04-14 19:01 15.43822 -70.46253 33936 ft 423 kts 327°
2026-04-14 19:02 15.49123 -70.48958 33936 ft 423 kts 327°
2026-04-14 19:02 15.54415 -70.51659 33940 ft 423 kts 327°
2026-04-14 19:03 15.59673 -70.54345 33940 ft 423 kts 327°
2026-04-14 19:03 15.64930 -70.57032 33939 ft 423 kts 327°
2026-04-14 19:04 15.70225 -70.59740 33936 ft 423 kts 327°
2026-04-14 19:04 15.75486 -70.62433 33935 ft 423 kts 327°
2026-04-14 19:05 15.80773 -70.65140 33936 ft 423 kts 327°
2026-04-14 19:05 15.86018 -70.67827 33940 ft 423 kts 327°
2026-04-14 19:06 15.91296 -70.70533 33940 ft 422 kts 327°
2026-04-14 19:06 15.96579 -70.73243 33942 ft 422 kts 327°
2026-04-14 19:07 16.01570 -70.76357 33934 ft 413 kts 315°
2026-04-14 19:07 16.05825 -70.80282 33941 ft 411 kts 313°
2026-04-14 19:08 16.10094 -70.84242 33941 ft 411 kts 314°
2026-04-14 19:08 16.14377 -70.88194 33943 ft 411 kts 314°
2026-04-14 19:09 16.18646 -70.92122 33944 ft 412 kts 314°
2026-04-14 19:09 16.22943 -70.96076 33946 ft 412 kts 314°
2026-04-14 19:10 16.27248 -71.00039 33950 ft 413 kts 314°
2026-04-14 19:10 16.31535 -71.03988 33947 ft 413 kts 314°
2026-04-14 19:11 16.35844 -71.07959 33945 ft 414 kts 314°
2026-04-14 19:11 16.40139 -71.11921 33947 ft 414 kts 314°
2026-04-14 19:12 16.44459 -71.15908 33951 ft 414 kts 314°
2026-04-14 19:13 16.50923 -71.21877 33950 ft 415 kts 314°
2026-04-14 19:13 16.55250 -71.25877 33948 ft 415 kts 314°
2026-04-14 19:14 16.59574 -71.29876 33948 ft 415 kts 314°
2026-04-14 19:14 16.63903 -71.33883 33953 ft 415 kts 314°
2026-04-14 19:15 16.68205 -71.37866 33951 ft 415 kts 314°
2026-04-14 19:15 16.72532 -71.41876 33950 ft 415 kts 314°
2026-04-14 19:16 16.76832 -71.45863 33951 ft 415 kts 314°
2026-04-14 19:16 16.81157 -71.49876 33952 ft 415 kts 314°
2026-04-14 19:17 16.85454 -71.53865 33954 ft 415 kts 314°
2026-04-14 19:17 16.89769 -71.57874 33957 ft 415 kts 314°
2026-04-14 19:18 16.94088 -71.61889 33955 ft 415 kts 314°
2026-04-14 19:18 16.98403 -71.65903 33955 ft 415 kts 314°
2026-04-14 19:19 17.02717 -71.69918 33951 ft 415 kts 314°
2026-04-14 19:19 17.07000 -71.73907 33955 ft 415 kts 314°
2026-04-14 19:20 17.11325 -71.77938 33954 ft 415 kts 314°
2026-04-14 19:20 17.15609 -71.81933 33959 ft 414 kts 314°
2026-04-14 19:21 17.19921 -71.85957 33953 ft 414 kts 314°
2026-04-14 19:21 17.24200 -71.89953 33947 ft 414 kts 314°
2026-04-14 19:22 17.28507 -71.93977 33953 ft 414 kts 314°
2026-04-14 19:22 17.32802 -71.97994 33958 ft 414 kts 314°
2026-04-14 19:23 17.37078 -72.01994 33961 ft 413 kts 314°
2026-04-14 19:23 17.41383 -72.06025 33956 ft 413 kts 314°
2026-04-14 19:24 17.45653 -72.10025 33959 ft 413 kts 314°
2026-04-14 19:24 17.49919 -72.14024 33959 ft 413 kts 314°
2026-04-14 19:25 17.54215 -72.18054 33959 ft 413 kts 314°
2026-04-14 19:25 17.58504 -72.22080 33957 ft 413 kts 314°
2026-04-14 19:26 17.62761 -72.26079 33956 ft 413 kts 314°
2026-04-14 19:26 17.67048 -72.30109 33956 ft 413 kts 314°
2026-04-14 19:27 17.71334 -72.34141 33954 ft 413 kts 314°
2026-04-14 19:27 17.75614 -72.38169 33956 ft 413 kts 314°
2026-04-14 19:28 17.79866 -72.42175 33955 ft 413 kts 314°
2026-04-14 19:28 17.84152 -72.46215 33953 ft 413 kts 314°
2026-04-14 19:29 17.88415 -72.50236 33954 ft 413 kts 314°
2026-04-14 19:29 17.93032 -72.53908 33953 ft 419 kts 324°
2026-04-14 19:30 17.98022 -72.57003 33956 ft 419 kts 324°
2026-04-14 19:30 18.03068 -72.60135 33954 ft 419 kts 324°
2026-04-14 19:31 18.08063 -72.63258 33956 ft 419 kts 324°
2026-04-14 19:31 18.13087 -72.66413 33954 ft 419 kts 324°
2026-04-14 19:32 18.18066 -72.69545 33955 ft 419 kts 324°
2026-04-14 19:32 18.23077 -72.72699 33956 ft 419 kts 324°
2026-04-14 19:33 18.28072 -72.75846 33955 ft 420 kts 324°
2026-04-14 19:33 18.33107 -72.79018 33967 ft 420 kts 324°
2026-04-14 19:34 18.40641 -72.83773 33960 ft 422 kts 324°
2026-04-14 19:34 18.45689 -72.86961 33951 ft 422 kts 324°
2026-04-14 19:35 18.50726 -72.90142 33960 ft 421 kts 324°
2026-04-14 19:35 18.55721 -72.93300 33965 ft 420 kts 324°
2026-04-14 19:36 18.60738 -72.96474 33966 ft 419 kts 324°
2026-04-14 19:36 18.65707 -72.99620 33962 ft 418 kts 324°
2026-04-14 19:37 18.70708 -73.02788 33965 ft 417 kts 324°
2026-04-14 19:37 18.75663 -73.05930 33967 ft 417 kts 324°
2026-04-14 19:38 18.80644 -73.09091 33973 ft 417 kts 324°
2026-04-14 19:38 18.85639 -73.12263 33966 ft 418 kts 324°
2026-04-14 19:39 18.90601 -73.15415 33977 ft 419 kts 324°
2026-04-14 19:39 18.95603 -73.18595 33969 ft 419 kts 325°
2026-04-14 19:40 19.00613 -73.21783 33969 ft 420 kts 325°
2026-04-14 19:40 19.05589 -73.24951 33972 ft 420 kts 325°
2026-04-14 19:41 19.10602 -73.28146 33980 ft 420 kts 325°
2026-04-14 19:41 19.15614 -73.31341 33974 ft 420 kts 325°
2026-04-14 19:42 19.20627 -73.34540 33971 ft 420 kts 325°
2026-04-14 19:42 19.25609 -73.37721 33971 ft 421 kts 325°
2026-04-14 19:43 19.30626 -73.40926 33982 ft 421 kts 325°
2026-04-14 19:43 19.35647 -73.44137 33981 ft 421 kts 325°
2026-04-14 19:44 19.40634 -73.47329 33979 ft 421 kts 325°
2026-04-14 19:44 19.45652 -73.50542 33977 ft 421 kts 325°
2026-04-14 19:45 19.50666 -73.53755 33986 ft 421 kts 326°
2026-04-14 19:45 19.55655 -73.56954 33998 ft 421 kts 326°
2026-04-14 19:46 19.60644 -73.60156 33993 ft 421 kts 326°
2026-04-14 19:46 19.65654 -73.63374 33995 ft 421 kts 326°
2026-04-14 19:47 19.70674 -73.66600 34002 ft 421 kts 326°
2026-04-14 19:47 19.75671 -73.69815 34005 ft 421 kts 326°
2026-04-14 19:48 19.79877 -73.72522 34006 ft 422 kts 326°
2026-04-14 19:48 19.84883 -73.75746 34006 ft 422 kts 326°
2026-04-14 19:49 19.89923 -73.78995 34008 ft 423 kts 326°
2026-04-14 19:49 19.94932 -73.82227 34015 ft 423 kts 326°
2026-04-14 19:50 19.99967 -73.85477 34015 ft 424 kts 326°
2026-04-14 19:50 20.05035 -73.88751 34016 ft 425 kts 326°
2026-04-14 19:51 20.10009 -73.91967 34015 ft 425 kts 326°
2026-04-14 19:51 20.15073 -73.95243 34018 ft 425 kts 327°
2026-04-14 19:52 20.20146 -73.98528 34017 ft 426 kts 327°
2026-04-14 19:52 20.25184 -74.01792 34022 ft 426 kts 327°
2026-04-14 19:53 20.30234 -74.05068 34020 ft 426 kts 327°
2026-04-14 19:53 20.35313 -74.08364 34023 ft 426 kts 327°
2026-04-14 19:54 20.42917 -74.13304 34029 ft 426 kts 327°
2026-04-14 19:55 20.47986 -74.16600 34033 ft 426 kts 327°
2026-04-14 19:55 20.53031 -74.19883 34037 ft 426 kts 327°
2026-04-14 19:56 20.58103 -74.23187 34041 ft 426 kts 327°
2026-04-14 19:56 20.63175 -74.26493 34037 ft 426 kts 327°
2026-04-14 19:57 20.68212 -74.29778 34040 ft 426 kts 327°
2026-04-14 19:57 20.73298 -74.33099 34044 ft 427 kts 327°
2026-04-14 19:58 20.78340 -74.36393 34045 ft 427 kts 327°
2026-04-14 19:58 20.83421 -74.39715 34044 ft 427 kts 328°
2026-04-14 19:59 20.88481 -74.43026 34045 ft 427 kts 328°
2026-04-14 19:59 20.93553 -74.46348 34044 ft 427 kts 328°
2026-04-14 20:00 20.98595 -74.49653 34046 ft 428 kts 328°
2026-04-14 20:00 21.03690 -74.52995 34048 ft 428 kts 328°
2026-04-14 20:01 21.08744 -74.56314 34049 ft 428 kts 328°
2026-04-14 20:01 21.13834 -74.59658 34049 ft 428 kts 328°
2026-04-14 20:02 21.18935 -74.63013 34049 ft 429 kts 328°
2026-04-14 20:02 21.23992 -74.66341 34051 ft 429 kts 328°
2026-04-14 20:03 21.29090 -74.69698 34055 ft 429 kts 328°
2026-04-14 20:03 21.34151 -74.73035 34062 ft 429 kts 328°
2026-04-14 20:04 21.39254 -74.76401 34059 ft 429 kts 328°
2026-04-14 20:04 21.44350 -74.79767 34059 ft 430 kts 328°
2026-04-14 20:05 21.49418 -74.83115 34062 ft 430 kts 328°
2026-04-14 20:05 21.54517 -74.86488 34059 ft 430 kts 328°
2026-04-14 20:06 21.59614 -74.89862 34064 ft 430 kts 328°
2026-04-14 20:06 21.64682 -74.93219 34065 ft 430 kts 328°
2026-04-14 20:07 21.69757 -74.96585 34065 ft 430 kts 328°
2026-04-14 20:07 21.74848 -74.99963 34070 ft 429 kts 328°
2026-04-14 20:08 21.79941 -75.03346 34068 ft 429 kts 328°
2026-04-14 20:08 21.85042 -75.06737 34070 ft 429 kts 328°
2026-04-14 20:09 21.90085 -75.10093 34071 ft 429 kts 328°
2026-04-14 20:09 21.95179 -75.13485 34073 ft 429 kts 328°
2026-04-14 20:10 22.00230 -75.16852 34073 ft 429 kts 328°
2026-04-14 20:10 22.05211 -75.20406 34083 ft 429 kts 325°
2026-04-14 20:11 22.10132 -75.24067 34077 ft 429 kts 325°
2026-04-14 20:11 22.15030 -75.27702 34076 ft 429 kts 325°
2026-04-14 20:12 22.19962 -75.31340 34082 ft 429 kts 326°
2026-04-14 20:12 22.24906 -75.34978 34079 ft 429 kts 326°
2026-04-14 20:13 22.29846 -75.38613 34081 ft 429 kts 326°
2026-04-14 20:13 22.34762 -75.42234 34086 ft 429 kts 326°
2026-04-14 20:14 22.39711 -75.45881 34085 ft 429 kts 325°
2026-04-14 20:14 22.44616 -75.49501 34084 ft 429 kts 325°
2026-04-14 20:15 22.49559 -75.53151 34090 ft 429 kts 325°
2026-04-14 20:15 22.54473 -75.56784 34089 ft 429 kts 325°
2026-04-14 20:16 22.59423 -75.60446 34091 ft 429 kts 325°
2026-04-14 20:16 22.64359 -75.64101 34098 ft 429 kts 325°
2026-04-14 20:17 22.69268 -75.67739 34095 ft 429 kts 325°
2026-04-14 20:17 22.74212 -75.71407 34099 ft 429 kts 325°
2026-04-14 20:18 22.79115 -75.75047 34098 ft 429 kts 325°
2026-04-14 20:18 22.84028 -75.78698 34099 ft 429 kts 325°
2026-04-14 20:19 22.88956 -75.82364 34101 ft 428 kts 325°
2026-04-14 20:19 22.93842 -75.86001 34103 ft 428 kts 325°
2026-04-14 20:20 22.98767 -75.89671 34103 ft 428 kts 325°
2026-04-14 20:20 23.03683 -75.93337 34102 ft 428 kts 325°
2026-04-14 20:21 23.08543 -75.96965 34106 ft 428 kts 325°
2026-04-14 20:21 23.13460 -76.00639 34108 ft 428 kts 325°
2026-04-14 20:22 23.18350 -76.04296 34114 ft 428 kts 325°
2026-04-14 20:22 23.23263 -76.07973 34112 ft 428 kts 325°
2026-04-14 20:23 23.28158 -76.11640 34115 ft 429 kts 325°
2026-04-14 20:23 23.33076 -76.15328 34109 ft 429 kts 325°
2026-04-14 20:24 23.38005 -76.19027 34113 ft 430 kts 325°
2026-04-14 20:24 23.42929 -76.22726 34117 ft 430 kts 325°
2026-04-14 20:25 23.47831 -76.26412 34117 ft 431 kts 325°
2026-04-14 20:25 23.52777 -76.30134 34120 ft 431 kts 325°
2026-04-14 20:26 23.57727 -76.33864 34123 ft 431 kts 325°
2026-04-14 20:26 23.62645 -76.37571 34128 ft 432 kts 325°
2026-04-14 20:27 23.67602 -76.41313 34124 ft 432 kts 325°
2026-04-14 20:27 23.72511 -76.45021 34128 ft 432 kts 325°
2026-04-14 20:28 23.77453 -76.48758 34126 ft 431 kts 325°
2026-04-14 20:28 23.79093 -76.49999 34131 ft 431 kts 325°